Location: Calvatone
(45.1167°N, 10.4333°E)
Time: 20:59:49
(UTC+00:00)

Cosmos 1606 Rocket - Pass Details

Date: 28 January 2023
Orbit: 602 x 630 km, 82.5° (Epoch: 21 March)

Event Time Altitude Azimuth Distance (km) Brightness Sun altitude
Rises 18:28:37 0° 350° (N) 2,868 7.1 -22.7°
Reaches altitude 10° 18:30:50 10° 350° (N) 1,958 6.2 -23.1°
Maximum altitude 18:35:11 84° 261° (W) 612 3.4 -23.9°
Enters shadow 18:36:19 49° 179° (S) 785 4.0 -24.1°
